MDT,Max TemperatureF,Mean TemperatureF,Min TemperatureF,Max Dew PointF,MeanDew PointF,Min DewpointF,Max Humidity, Mean Humidity, Min Humidity, Max Sea Level PressureIn, Mean Sea Level PressureIn, Min Sea Level PressureIn, Max VisibilityMiles, Mean VisibilityMiles, Min VisibilityMiles, Max Wind SpeedMPH, Mean Wind SpeedMPH, Max Gust SpeedMPH,PrecipitationIn, CloudCover, Events, WindDirDegrees
2013-5-1,46,29,11,14,7,1,84,50,15,30.57,30.39,30.18,,,,13,4,20,0.00,,,325
2013-5-2,59,36,12,18,10,3,88,50,11,30.63,30.49,30.30,,,,16,3,21,0.00,,,186
2013-5-3,58,41,23,31,21,14,81,51,21,30.25,30.12,30.00,,,,14,4,22,0.00,,,341
2013-5-4,52,41,29,30,26,24,85,60,35,30.01,29.97,29.94,,,,16,4,23,0.00,,,12
2013-5-5,62,42,22,35,28,22,92,58,24,29.97,29.91,29.83,,,,16,3,25,0.00,,,167
2013-5-6,68,46,23,37,29,22,100,60,19,29.99,29.90,29.78,,,,17,3,26,0.02,,,139
2013-5-7,67,46,24,41,31,23,100,60,20,29.96,29.87,29.75,,,,18,3,24,0.03,,,177
2013-5-8,68,51,34,44,37,31,100,63,26,30.10,30.01,29.92,,,,17,4,24,0.04,,,103
2013-5-9,71,50,28,40,31,24,100,59,18,30.20,30.09,30.00,,,,17,4,30,0.00,,,150
2013-5-10,73,50,27,36,29,20,92,54,15,30.23,30.17,30.12,,,,14,3,20,0.00,,,164
2013-5-11,72,50,27,36,30,26,92,57,21,30.27,30.21,30.12,,,,12,3,18,0.00,,,145
2013-5-12,76,54,31,38,33,30,92,56,20,30.19,30.09,29.98,,,,13,3,23,0.00,,,173
2013-5-13,74,54,33,39,30,17,96,55,14,30.03,29.93,29.81,,,,22,5,33,0.00,,,237
2013-5-14,67,51,35,36,30,21,73,47,20,29.91,29.86,29.82,,,,15,5,24,0.00,,,199
2013-5-15,67,48,29,33,28,23,92,56,20,29.94,29.86,29.74,,,,14,4,24,0.00,,,293
2013-5-16,58,50,41,41,35,30,89,63,36,29.77,29.73,29.69,,,,14,4,21,0.02,,,13
2013-5-17,53,44,35,42,38,35,100,75,50,29.86,29.75,29.70,,,,13,2,17,0.19,,,351
2013-5-18,56,43,30,38,31,24,92,61,30,29.98,29.89,29.84,,,,13,4,18,0.04,,,290
2013-5-19,54,42,29,32,28,25,92,64,35,30.09,30.04,29.98,,,,14,4,21,0.00,,,325
2013-5-20,66,45,24,34,29,23,92,56,20,30.20,30.06,29.95,,,,13,2,24,0.00,,,225
2013-5-21,63,45,26,36,32,24,92,60,27,29.94,29.74,29.47,,,,23,6,33,0.00,,,166
2013-5-22,52,40,27,33,18,4,92,55,17,29.81,29.64,29.49,,,,21,5,30,0.00,,,188
2013-5-23,55,35,15,26,10,-3,72,42,11,29.88,29.80,29.68,,,,15,4,23,0.00,,,327
2013-5-24,57,38,18,22,19,15,92,57,22,29.97,29.90,29.86,,,,18,5,28,0.00,,,182
2013-5-25,60,45,29,26,24,21,75,50,24,29.89,29.84,29.81,,,,15,4,22,0.00,,,249
2013-5-26,58,44,29,41,32,24,100,68,35,29.93,29.86,29.81,,,,20,4,30,0.09,,,176
2013-5-27,56,46,36,38,34,25,100,66,32,29.91,29.83,29.73,,,,12,3,17,0.04,,,302
2013-5-28,52,44,35,43,38,34,100,83,66,29.78,29.71,29.66,,,,17,4,24,0.11,,,347
2013-5-29,52,42,31,39,34,30,100,73,46,29.80,29.71,29.62,,,,14,4,23,0.03,,,302
2013-5-30,53,40,26,33,28,22,100,68,35,30.01,29.89,29.81,,,,17,5,24,0.00,,,325
2013-5-31,61,42,22,30,22,14,92,54,16,30.20,30.10,30.02,,,,15,4,21,0.00,,,354